Location: Peebles
(55.6412°N, 3.1714°W)
Time: 06:39:59
(UTC+00:00)

DOVE 4 - Pass Details

Date: 30 September 2023
Orbit: 583 x 785 km, 97.8° (Epoch: 02 December)

Event Time Altitude Azimuth Distance (km) Brightness Sun altitude
Rises 00:37:54 0° 11° (N) 3,088 ? -36.7°
Reaches altitude 10° 00:40:12 10° 4° (N) 2,198 ? -36.8°
Enters shadow 00:42:16 24° 350° (N) 1,486 ? -36.8°
